Location: Madrid
(40.4000°N, 3.6830°W)
Time: 18:22:15
(UTC+01:00)

ISS - Pass Details

Date: 22 January 2020
Orbit: 415 x 422 km, 51.6° (Epoch: 23 January)

Event Time Altitude Azimuth Distance (km) Brightness Sun altitude
Rises 19:54:55 0° 247° (WSW) 2,361 1.6 -17.9°
Reaches altitude 10° 19:57:03 10° 253° (WSW) 1,499 0.3 -18.3°
Maximum altitude 20:00:19 46° 328° (NNW) 575 -3.0 -18.9°
Enters shadow 20:01:00 39° 6° (N) 645 -3.0 -19.0°
